Regional Weather Roundup
Issued by NWS

Home | Current Version | Previous Version | Graphics & Text | Print | Product List | Glossary On
Versions: 1 2 3 4 5 6 7 8 9 10 11 12 13 14 15 16 17 18 19 20 21 22 23 24 25 26 27 28 29 30 31 32 33 34 35 36 37 38 39 40 41 42 43 44 45 46 47 48 49 50
000
ASUS43 KOAX 020002
RWRNE
WEATHER ROUNDUP FOR NEBRASKA
NATIONAL WEATHER SERVICE OMAHA NE
700 PM CDT MON JUN 01 2015

NOTES: SATELLITE DATA IS BEING USED TO AUGMENT CLOUD COVER ABOVE
       12000 FEET.
       "FAIR" INDICATES FEW OR NO CLOUDS BELOW 12,000 FEET WITH NO
       SIGNIFICANT WEATHER AND/OR OBSTRUCTIONS TO VISIBILITY.

  * THESE STATIONS DO NOT REPORT WEATHER SUCH AS RAIN...SNOW OR FOG.

NEZ001>004-019>022-054>056-020100-
NEBRASKA PANHANDLE

CITY           SKY/WX    TMP DP  RH WIND       PRES   REMARKS
SCOTTSBLUFF    CLOUDY    69  56  62 N12       29.90F
6HR MIN TEMP:  66; 6HR MAX TEMP:  87; 6HR PCP:  0.03;

ALLIANCE       CLOUDY    73  53  49 W14G24    29.94R
6HR MIN TEMP:  73; 6HR MAX TEMP:  82;

CHADRON        CLOUDY    77  51  40 S15       29.87R
6HR MIN TEMP:  77; 6HR MAX TEMP:  86;

KIMBALL          N/A    N/A N/A N/A MISG        N/A
SIDNEY         MOSUNNY   76  59  55 CALM      29.97F
6HR MIN TEMP:  76; 6HR MAX TEMP:  83;

$$

NEZ057>060-069>072-079>082-020100-
SOUTHWEST NEBRASKA

CITY           SKY/WX    TMP DP  RH WIND       PRES   REMARKS
NORTH PLATTE   SUNNY     76  62  62 SE12G23   29.97F
6HR MIN TEMP:  66; 6HR MAX TEMP:  78;

IMPERIAL       MOSUNNY   81  61  50 SE23      29.94F
6HR MIN TEMP:  73; 6HR MAX TEMP:  82;

LEXINGTON      SUNNY     74  62  65 SE14      30.00S
MCCOOK         MOSUNNY   81  62  52 SE14G23   29.96F
6HR MIN TEMP:  72; 6HR MAX TEMP:  84;

$$

NEZ005>010-023>029-035>040-094-020100-
NORTH CENTRAL NEBRASKA

CITY           SKY/WX    TMP DP  RH WIND       PRES   REMARKS
VALENTINE      SUNNY     80  58  46 S17       29.91F
6HR MIN TEMP:  78; 6HR MAX TEMP:  83;

AINSWORTH      SUNNY     78  61  55 S15G22    29.95F
BROKEN BOW     SUNNY     74  60  61 S18G26    30.00F
6HR MIN TEMP:  73; 6HR MAX TEMP:  79;

ORD            MOSUNNY   73  57  57 S18       29.99S
6HR MIN TEMP:  73; 6HR MAX TEMP:  79;

$$

NEZ041-046>049-061>064-073>077-083>087-020100-
SOUTH CENTRAL NEBRASKA

CITY           SKY/WX    TMP DP  RH WIND       PRES   REMARKS
GRAND ISLAND   SUNNY     73  56  54 S14       30.03S
6HR MIN TEMP:  71; 6HR MAX TEMP:  80;

HASTINGS       CLOUDY    72  58  61 S12       30.03S
6HR MIN TEMP:  72; 6HR MAX TEMP:  76;

KEARNEY *      MOSUNNY   72  57  60 S15G22    30.02F
$$

NEZ011>018-030>034-042>045-020100-
NORTHEAST NEBRASKA

CITY           SKY/WX    TMP DP  RH WIND       PRES   REMARKS
NORFOLK        SUNNY     76  53  44 SE16G25   30.02S
6HR MIN TEMP:  74; 6HR MAX TEMP:  79;

COLUMBUS *     SUNNY     75  52  43 SE15      30.04F
FREMONT        SUNNY     74  51  43 SE10G17   30.06S
TEKAMAH        SUNNY     76  51  41 SE18      30.05F
6HR MIN TEMP:  74; 6HR MAX TEMP:  79;

$$

NEZ050>053-065>068-078-088>093-020100-
SOUTHEAST NEBRASKA

CITY           SKY/WX    TMP DP  RH WIND       PRES   REMARKS
LINCOLN        SUNNY     74  53  48 SE13      30.06S
6HR MIN TEMP:  73; 6HR MAX TEMP:  77;

OMAHA EPPLEY   MOSUNNY   73  51  46 SE14      30.07S
6HR MIN TEMP:  70; 6HR MAX TEMP:  75;

FALLS CITY     SUNNY     70  53  54 SE14      30.08S
6HR MIN TEMP:  68; 6HR MAX TEMP:  73;

PLATTSMOUTH    SUNNY     72  49  44 SE9       30.08S
$$

NEZ044-045-051>053-067-020100-
OMAHA AREA

CITY           SKY/WX    TMP DP  RH WIND       PRES   REMARKS
OMAHA EPPLEY   MOSUNNY   73  51  46 SE14      30.07S
6HR MIN TEMP:  70; 6HR MAX TEMP:  75;

FREMONT        SUNNY     74  51  43 SE10G17   30.06S
OFFUTT AFB     SUNNY     73  53  48 SE8       30.06F
PLATTSMOUTH    SUNNY     72  49  44 SE9       30.08S
$$



USA.gov is the U.S. government's official web portal to all federal, state and local government web resources and services.